Home > Weather > Reims > Past weeks

Flag for France Past Weather in Reims, Champagne-Ardenne, France — Yesterday and Last 2 Weeks

Now
52 °F

Cloudy.


Feels Like: 49 °F
Forecast: 40 / 65 °F
Wind: 9 mph from North

Location: Chalons-Vatry

Current Time: May 24, 2016 at 11:55:43 AM

Latest Report: May 24, 2016 at 11:30 AM


Visibility: N/A

Pressure: 30.07 "Hg

Humidity: 88%

Dew Point: 48 °F

Location of ReimsLocation

Past Weather in Reims — Graph

°F

Reims Temperature Yesterday

Maximum temperature yesterday: 57 °F (at 1:00 PM)
Minimum temperature yesterday: 50 °F (at 4:00 AM)
Average temperature yesterday: 53 °F

High & Low Weather Summary for the Past Weeks

 TemperatureHumidityPressure
High73 °F (May 21, 3:30 PM)100% (May 9, 10:00 PM)30.21 "Hg (May 9, 10:00 PM)
Low34 °F (May 15, 3:30 AM)51% (May 15, 4:30 PM)29.50 "Hg (May 12, 3:00 AM)
Average55 °F86%29.89 "Hg
* Reported May 9 10:00 AM — May 24 10:30 AM, Reims, Weather by CustomWeather, © 2016

Note: Actual official high and low records may vary slightly from our data, if they occured in-between our weather recording intervals... More about our weather records

Advertising

Reims Weather History for the Previous 24 Hours

Scroll right to see more
 ConditionsComfort  
Time TempWeatherWind HumidityBarometerVisibility
10:30 AM
Tue, May 24
52 °FMostly cloudy.8 mph88%30.09 "HgN/A
10:00 AM52 °FMostly cloudy.8 mph88%30.09 "HgN/A
9:30 AM50 °FMostly cloudy.8 mph94%30.09 "HgN/A
9:00 AM50 °FOvercast.6 mph94%30.09 "HgN/A
8:30 AM50 °FMostly cloudy.5 mph94%30.07 "HgN/A
8:00 AM48 °FOvercast.7 mph100%30.07 "HgN/A
7:30 AM48 °FClear.5 mph94%30.07 "Hg10 mi
7:00 AM46 °FClear.5 mph93%30.09 "Hg10 mi
6:30 AM46 °FClear.6 mph93%30.09 "Hg10 mi
6:00 AM45 °FClear.6 mph100%30.09 "Hg10 mi
5:30 AM46 °FClear.6 mph93%30.09 "Hg10 mi
5:00 AM46 °FClear.5 mph93%30.09 "Hg10 mi
4:30 AM48 °FClear.8 mph94%30.09 "Hg10 mi
4:00 AM48 °FPartly cloudy.10 mph94%30.09 "HgN/A
3:30 AM50 °FPassing clouds.12 mph94%30.09 "HgN/A
3:00 AM50 °FOvercast.9 mph94%30.09 "Hg6 mi
2:30 AM48 °FMostly cloudy.7 mph100%30.09 "Hg4 mi
2:00 AM48 °FPassing clouds.7 mph94%30.09 "Hg4 mi
1:30 AM46 °FFog.7 mph100%30.09 "Hg3 mi
1:00 AM48 °FFog.7 mph94%30.09 "Hg3 mi
12:30 AM48 °FClear.6 mph100%30.09 "Hg4 mi
12:00 AM50 °FClear.9 mph100%30.09 "Hg4 mi
11:30 PM
Mon, May 23
50 °FPassing clouds.10 mph100%30.09 "HgN/A
11:00 PM52 °FBroken clouds.8 mph94%30.09 "HgN/A
10:30 PM52 °FSunny.9 mph94%30.09 "Hg10 mi
10:00 PM52 °FMore clouds than sun.6 mph94%30.09 "HgN/A
9:30 PM52 °FBroken clouds.7 mph94%30.09 "HgN/A
9:00 PM54 °FPartly sunny.5 mph88%30.07 "HgN/A
8:30 PM54 °FBroken clouds.5 mph88%30.07 "HgN/A
8:00 PM54 °FBroken clouds.12 mph88%30.07 "HgN/A
7:30 PM54 °FPartly sunny.15 mph88%30.07 "HgN/A
7:00 PM54 °FMostly cloudy.13 mph88%30.04 "HgN/A
6:30 PM55 °FMore clouds than sun.10 mph88%30.04 "HgN/A
6:00 PM55 °FBroken clouds.10 mph88%30.04 "HgN/A
5:30 PM57 °FPartly sunny.9 mph77%30.04 "HgN/A
5:00 PM57 °FMore clouds than sun.10 mph77%30.04 "HgN/A
4:30 PM55 °FBroken clouds.13 mph82%30.01 "HgN/A
4:00 PM55 °FBroken clouds.15 mph88%30.01 "HgN/A
3:30 PM54 °FLight rain. Broken clouds.6 mph94%30.01 "HgN/A
3:00 PM55 °FBroken clouds.10 mph82%30.01 "HgN/A
2:30 PM57 °FCloudy.10 mph72%30.01 "HgN/A
2:00 PM57 °FBroken clouds.14 mph72%29.98 "HgN/A
1:30 PM57 °FPartly sunny.13 mph82%29.98 "HgN/A
1:00 PM57 °FOvercast.12 mph82%29.98 "HgN/A
12:30 PM55 °FLight rain. Broken clouds.10 mph82%29.98 "HgN/A
12:00 PM54 °FPartly sunny.9 mph88%29.98 "HgN/A
11:30 AM54 °FBroken clouds.8 mph88%29.98 "HgN/A
11:00 AM54 °FMostly cloudy.9 mph94%29.95 "HgN/A
Weather by CustomWeather, © 2016

See weather overviewHow to use our weather pages